Wetbulb
50.02 51.22 50.43 49.31 47.81 47.03 46.70 46.31 46.91 46.84 47.67 48.70 48.46 47.75 47.01 45.83 43.93 43.66 42.24 42.00 41.80 40.97
49.22 48.17 47.33 46.94 47.48 46.43 46.13 45.30 45.78 46.32 46.54 47.28 46.55 47.02 46.36 45.10 43.75 44.17 42.57 42.63 41.21 40.06
47.57 47.76 47.69 47.07 45.37 45.21 45.66 45.67 45.04 45.00 45.24 45.90 46.32 46.26 45.40 43.83 44.01 42.43 42.38 40.76 39.48 39.75
47.15 47.11 46.68 45.66 45.21 45.29 45.39 44.96 44.17 44.47 44.29 44.27 44.40 44.21 43.90 43.41 43.33 41.68 40.67 39.88 39.51 39.27
46.67 45.93 45.53 45.12 45.18 45.35 44.59 44.81 44.16 44.20 43.64 43.45 43.14 43.25 41.79 42.05 40.89 39.76 39.08 39.06 38.59 38.00
45.36 45.41 45.14 45.07 45.35 45.24 44.64 43.78 43.81 43.49 43.06 42.29 42.21 41.18 39.38 40.17 39.33 38.94 38.55 38.26 37.51 36.69
45.28 44.98 44.75 45.20 45.03 44.64 44.10 42.86 42.84 43.02 42.51 41.90 41.27 40.24 39.59 38.20 38.74 38.36 37.95 37.18 36.23 34.79
44.77 44.67 44.59 44.59 44.42 43.99 43.04 42.64 42.68 42.14 42.02 41.14 39.90 38.58 38.10 38.12 37.66 36.70 35.69 35.05 33.97 33.54
43.15 43.15 43.08 43.41 42.87 42.15 42.01 42.09 41.72 41.05 40.59 39.36 38.22 31.38 31.07 31.29 35.35 35.32 33.64 32.49 32.67 32.63
41.93 41.53 41.83 41.89 41.40 41.06 41.14 41.37 40.69 40.63 39.46 38.06 37.54 29.36 29.02 28.62 33.64 33.19 32.59 31.74 31.38 30.61
40.83 40.40 40.81 40.76 40.49 41.04 40.99 40.09 39.89 39.72 38.42 37.55 35.02 28.00 27.64 27.72 33.19 32.61 31.89 31.42 30.97 30.59
40.48 39.66 39.52 39.33 39.81 40.44 39.82 39.34 39.02 38.69 37.70 36.35 35.18 27.53 26.89 28.08 32.21 31.50 30.70 31.03 31.00 29.39
39.92 39.06 38.41 39.22 39.54 39.66 39.57 37.94 37.97 37.18 36.97 31.16 33.73 26.93 26.26 27.85 31.58 30.03 29.93 30.56 29.92 26.92
39.23 38.78 38.83 39.22 39.27 38.67 38.33 37.65 36.71 34.82 35.15 34.40 33.00 32.12 26.08 25.82 29.45 29.83 28.47 28.51 28.77 28.49
MSLP
1024.51 1024.54 1024.69 1024.95 1025.18 1025.14 1025.26 1025.34 1025.51 1025.39 1025.13 1024.82 1024.78 1024.89 1024.66 1024.64 1024.67 1024.76 1024.78 1024.61 1024.59 1024.32
1024.70 1024.77 1024.92 1025.18 1025.48 1025.30 1025.41 1025.39 1025.26 1025.19 1024.91 1024.63 1024.58 1024.39 1024.28 1024.07 1024.17 1024.21 1024.27 1024.10 1024.20 1024.17
1024.61 1024.84 1024.98 1025.19 1025.24 1025.26 1025.23 1025.19 1025.12 1024.92 1024.58 1024.20 1023.92 1023.92 1023.95 1023.88 1023.68 1023.74 1023.75 1023.75 1023.96 1023.86
1024.39 1024.62 1024.77 1024.91 1024.93 1025.01 1025.19 1025.11 1025.00 1024.76 1024.45 1024.03 1023.64 1023.64 1023.79 1023.76 1023.51 1023.37 1023.47 1023.74 1023.70 1023.51
1024.12 1024.22 1024.39 1024.52 1024.72 1024.88 1024.94 1024.92 1024.75 1024.50 1024.24 1023.94 1023.90 1024.18 1024.13 1023.31 1023.14 1023.39 1023.39 1023.49 1023.52 1023.39
1023.71 1023.90 1024.04 1024.22 1024.36 1024.51 1024.54 1024.55 1024.42 1024.10 1023.86 1023.64 1023.88 1024.37 1024.11 1023.79 1023.62 1023.59 1023.62 1023.65 1023.57 1023.47
1023.50 1023.62 1023.74 1023.82 1023.94 1024.02 1024.15 1024.16 1023.96 1023.87 1023.73 1023.76 1023.83 1023.99 1023.92 1023.96 1023.87 1023.66 1023.61 1023.67 1023.64 1023.59
1023.24 1023.39 1023.39 1023.56 1023.70 1023.81 1023.90 1023.70 1023.57 1023.56 1023.52 1023.75 1023.92 1024.29 1024.44 1024.20 1023.98 1023.73 1023.64 1023.55 1023.49 1023.36
1023.16 1023.22 1023.28 1023.42 1023.54 1023.58 1023.50 1023.25 1023.13 1023.11 1023.48 1023.80 1024.10 1025.18 1025.32 1025.24 1024.30 1023.75 1023.57 1023.37 1023.27 1023.15
1023.07 1023.13 1023.15 1023.16 1023.17 1023.10 1022.98 1023.07 1022.90 1022.76 1023.20 1023.60 1024.15 1025.23 1025.34 1025.36 1024.45 1023.93 1023.65 1023.51 1023.25 1023.00
1022.80 1022.93 1022.92 1022.86 1022.77 1022.71 1022.75 1022.65 1022.66 1022.76 1022.94 1023.34 1024.10 1025.20 1025.26 1025.16 1024.10 1023.90 1023.69 1023.49 1023.22 1022.96
1022.70 1022.72 1022.57 1022.36 1022.26 1022.30 1022.28 1022.20 1022.36 1022.86 1022.91 1023.22 1023.71 1024.86 1025.07 1024.84 1024.11 1023.79 1023.62 1023.30 1022.98 1023.19
1022.60 1022.52 1022.22 1021.97 1021.87 1021.95 1021.99 1022.02 1022.24 1022.48 1022.99 1023.41 1023.64 1024.63 1024.84 1024.64 1024.08 1023.83 1023.46 1023.06 1022.85 1023.02
1022.29 1022.25 1022.06 1021.79 1021.76 1021.68 1021.52 1021.68 1022.12 1022.64 1022.95 1023.18 1023.50 1023.71 1024.43 1024.51 1024.26 1023.78 1023.50 1023.04 1022.67 1022.76
Wind_Speed
4 3 3 5 6 6 6 7 10 11 11 11 8 9 8 8 6 8 7 9 8 8
4 3 4 5 5 4 6 7 10 11 11 11 10 11 10 9 9 10 8 8 8 8
3 1 3 4 5 6 7 10 12 12 12 12 11 12 11 11 11 10 8 7 10 11
3 1 4 5 5 6 8 11 12 12 12 12 11 10 10 13 13 9 9 10 11 11
2 4 6 6 6 6 9 10 12 11 10 10 9 12 15 11 7 7 10 10 10 12
6 6 7 7 7 7 9 11 11 10 11 10 9 8 6 8 7 7 7 8 11 13
7 7 7 7 7 8 9 11 10 10 10 8 8 8 6 6 7 7 8 9 11 11
6 7 7 7 7 8 10 10 9 9 8 7 5 3 5 6 7 9 10 10 10 10
6 7 7 7 8 10 10 10 9 9 7 6 2 5 3 7 9 9 10 10 10 10
6 7 7 8 10 10 10 9 10 7 6 6 3 2 1 5 9 8 8 9 10 10
6 7 8 10 10 10 9 9 9 6 6 6 4 2 1 6 8 7 8 9 10 11
6 8 10 11 10 9 8 8 7 6 6 6 4 4 1 7 7 7 9 8 9 10
8 9 10 11 9 7 7 7 6 6 6 1 5 6 2 5 5 7 7 9 9 5
8 9 10 9 7 7 8 6 5 5 6 6 5 5 5 2 5 6 7 8 7 7
Wind_Direction
76 41 6 5 336 323 329 330 331 317 307 293 263 270 283 273 276 269 266 275 286 296
99 57 11 345 314 339 328 327 328 318 306 291 265 275 281 285 295 285 266 276 287 293
119 68 341 302 314 321 328 331 327 320 311 301 288 288 281 293 294 286 270 282 298 288
163 286 300 295 306 322 325 327 322 318 313 301 293 294 289 280 288 277 277 295 288 295
239 290 285 301 301 306 313 322 320 315 308 305 311 318 305 289 291 278 296 302 298 299
275 282 298 292 284 295 311 318 313 311 308 314 311 293 273 305 308 307 306 301 306 307
288 292 287 284 283 296 310 308 310 308 315 322 305 307 308 302 300 303 308 310 308 308
289 285 281 276 283 301 303 301 302 300 306 306 297 333 322 310 308 312 313 310 308 311
286 285 282 280 292 300 297 296 302 298 294 283 227 79 45 327 316 313 312 315 316 316
285 285 283 288 293 296 298 302 297 285 265 244 184 107 27 330 307 317 319 317 317 318
284 284 289 287 289 296 295 301 296 274 244 228 139 150 344 315 303 312 319 319 317 314
281 285 289 290 291 288 294 297 278 264 241 230 203 158 295 309 316 318 316 318 318 333
284 287 291 294 285 283 286 283 276 254 250 101 247 160 234 307 312 318 313 315 323 329
286 295 298 290 274 281 289 284 264 248 239 238 240 203 194 263 300 313 319 315 320 327